Location: Cabeza Gorda
(40.0667°N, 4.9667°W)
Time: 19:14:07
(UTC+00:00)

ARIANE 6 FM1 Upper Stage - Pass Details

Date: 15 January 2026
Orbit: 522 x 609 km, 62.0° (Epoch: 11 February)

Event Time Altitude Azimuth Distance (km) Brightness Sun altitude
Exits shadow 06:50:40 13° 281° (W) 1,618 4.3 -9.5°
Maximum altitude 06:52:46 18° 245° (WSW) 1,354 4.2 -9.1°
Drops below altitude 10° 06:55:30 10° 201° (SSW) 1,791 5.2 -8.6°
Sets 06:58:16 0° 182° (S) 2,694 6.4 -8.1°
